AO-07 1 07530U 74089B 24151.52344355 -.00000026 00000-0 12787-3 0 9994 2 07530 101.9774 146.0066 0012585 117.1576 355.8874 12.53675797266824 UO-11 1 14781U 84021B 24151.85971173 .00002281 00000-0 26262-3 0 9994 2 14781 97.7040 121.6537 0009362 126.9374 233.2700 14.86660034166915 AO-16 1 20439U 90005D 24151.61377272 .00000306 00000-0 12780-3 0 9990 2 20439 98.8994 156.2470 0009579 262.9058 212.1092 14.33380082794812 LO-19 1 20442U 90005G 24151.56509679 .00000332 00000-0 13700-3 0 9998 2 20442 98.8817 141.3699 0010712 234.3353 125.6834 14.33540153795258 AO-27 1 22825U 93061C 24151.56177325 .00000225 00000-0 10368-3 0 9997 2 22825 98.7894 204.1521 0009367 126.6161 233.5884 14.30496713600095 IO-26 1 22826U 93061D 24151.12547554 .00000218 00000-0 10038-3 0 9991 2 22826 98.7840 203.5746 0009994 114.5360 245.6866 14.30877639600311 FO-29 1 24278U 96046B 24151.37347935 .00000022 00000-0 60673-4 0 9992 2 24278 98.5800 88.3641 0349284 234.2943 122.5230 13.53189393372026 NOAA-15 1 25338U 98030A 24151.77261386 .00000441 00000-0 20060-3 0 9994 2 25338 98.5692 179.2625 0010637 22.6266 337.5382 14.26590438354954 GO-32 1 25397U 98043D 24151.53140715 .00000191 00000-0 10319-3 0 9997 2 25397 98.9205 117.9917 0001143 157.3308 202.7921 14.24049436344902 ISS 1 25544U 98067A 24151.87517021 .00021999 00000-0 38289-3 0 9997 2 25544 51.6411 41.1111 0005383 254.3387 182.4807 15.50684059455861 NO-44 1 26931U 01043C 24151.87639444 .00000337 00000-0 15858-3 0 9990 2 26931 67.0523 16.2758 0006836 280.7439 79.2892 14.31239409183635 SO-50 1 27607U 02058C 24151.61986584 .00002443 00000-0 34705-3 0 9992 2 27607 64.5556 275.5425 0027885 121.9896 238.3924 14.78943664153722 CO-55 1 27844U 03031E 24151.58566558 .00000612 00000-0 28976-3 0 9997 2 27844 98.6767 158.8605 0009490 188.4097 171.6924 14.23255570 85289 CO-57 1 27848U 03031J 24151.51288965 .00000514 00000-0 24909-3 0 9990 2 27848 98.6798 159.0438 0009107 205.1635 154.9101 14.22698058 85073 RS-22 1 27939U 03042A 24151.87329056 .00002164 00000-0 36981-3 0 9995 2 27939 98.2893 307.8021 0013188 113.4438 45.9336 14.69910497105733 NOAA-18 1 28654U 05018A 24151.79140773 .00000364 00000-0 21790-3 0 9995 2 28654 98.8743 228.9003 0015352 111.9471 248.3335 14.13219330980800 CO-58 1 28895U 05043F 24151.85601748 .00003089 00000-0 55074-3 0 9990 2 28895 98.1990 287.6614 0016515 55.4396 304.8364 14.67652668992148 CO-65 1 32785U 08021C 24151.90152045 .00007482 00000-0 66140-3 0 9996 2 32785 97.7528 117.3768 0011759 32.4316 327.7626 14.96563165872961 AAUSAT2 1 32788U 08021F 24151.43359046 .00018503 00000-0 94508-3 0 9992 2 32788 97.5935 131.6326 0004048 204.6797 155.4243 15.16736923875738 CO-66 1 32791U 08021J 24151.50004939 .00008861 00000-0 65326-3 0 9994 2 32791 97.6897 122.7761 0006220 33.2362 326.9253 15.03527819873868 RS-30 1 32953U 08025A 24151.84891685 .00000062 00000-0 37699-3 0 9994 2 32953 82.5016 100.2698 0019981 139.2590 220.9988 12.43141698726977 PRISM 1 33493U 09002B 24151.66302399 .00026332 00000-0 12698-2 0 9998 2 33493 98.2060 197.7844 0010652 307.3716 52.6545 15.18639360836398 NOAA-19 1 33591U 09005A 24151.81113851 .00000318 00000-0 19467-3 0 9998 2 33591 99.0479 207.4256 0013378 345.6610 14.4180 14.13016020789172 SRMSAT 1 37841U 11058D 24151.66464382 .00000557 00000-0 16009-3 0 9996 2 37841 19.9722 262.7682 0011657 262.3152 226.2454 14.11117898652301 HRBE 1 37855U 11061F 24151.40695875 .00229484 00000-0 12147-2 0 9990 2 37855 101.6866 326.6920 0034685 17.8460 342.4000 15.79026670690245 RS-40 1 38735U 12041C 24151.86700603 .00000034 00000-0 17925-3 0 9991 2 38735 82.4756 180.6805 0016030 254.9169 105.0137 12.42609085537115 ZACUBE-1 1 39417U 13066B 24151.44782272 .00003933 00000-0 41375-3 0 9990 2 39417 97.7330 107.8190 0049560 217.4763 142.2996 14.89080134568948 Delfi-N3xt 1 39428U 13066N 24151.26027574 .00005682 00000-0 73021-3 0 9995 2 39428 97.8389 70.0719 0102467 145.9114 214.8735 14.77873299563440 GOMX-1 1 39430U 13066Q 24151.75950810 .00002864 00000-0 48203-3 0 9993 2 39430 97.7347 27.1960 0139006 308.7327 50.1517 14.64114732560498 LO-74 1 39440U 13066AA 24151.43563215 .00005423 00000-0 64289-3 0 9994 2 39440 97.8121 95.4903 0069166 333.6890 26.0816 14.83222797565701 AO-73 1 39444U 13066AE 24151.44060814 .00006182 00000-0 60389-3 0 9996 2 39444 97.7186 110.8918 0047570 197.6628 162.2939 14.91884517567462 SPROUT 1 39770U 14029E 24151.38942486 .00113399 00000-0 25666-2 0 9992 2 39770 98.0089 302.1656 0009204 239.2186 120.8154 15.42658881544902 DTUSAT-2 1 40030U 14033W 24151.85333065 .00007022 00000-0 59657-3 0 9990 2 40030 98.0059 103.8420 0009210 205.6804 154.3961 14.98173756540611 EO-80 1 40032U 14033Y 24151.82268863 .00009584 00000-0 81084-3 0 9996 2 40032 98.0069 103.8193 0008426 197.8868 162.2058 14.98233772540598 XW-2C 1 40906U 15049H 24151.86146139 .00042261 00000-0 10023-2 0 9992 2 40906 97.4792 168.2317 0007869 22.0975 338.0609 15.41579488481804 XW-2D 1 40907U 15049J 24151.83179420 .00053647 00000-0 10042-2 0 9990 2 40907 97.4731 170.5349 0005226 15.5127 344.6283 15.48515857482012 LILACSAT-2 1 40908U 15049K 24151.75454335 .00010173 00000-0 39687-3 0 9997 2 40908 97.5244 160.3415 0013867 58.1651 302.0935 15.26035874480831 XW-2B 1 40911U 15049N 24151.84991772 .00053900 00000-0 10338-2 0 9998 2 40911 97.4707 170.6758 0005544 15.9762 344.1662 15.47811175481888 IO-86 1 40931U 15052B 24151.39933349 .00001335 00000-0 93195-4 0 9999 2 40931 5.9963 119.8096 0013927 188.3395 171.6501 14.77852887468820 ChubuSat-2 1 41338U 16012B 24151.34654145 .00005163 00000-0 32024-3 0 9993 2 41338 30.9999 145.6261 0010910 57.7804 302.3890 15.08121891454900 ChubuSat-3 1 41339U 16012C 24151.34913077 .00004997 00000-0 31452-3 0 9994 2 41339 31.0067 143.9813 0010978 62.6967 297.4787 15.07566904454885 Horyu-4 1 41340U 16012D 24151.23275945 .00010747 00000-0 53939-3 0 9993 2 41340 31.0022 92.5864 0009387 154.3391 205.7716 15.15996645455428 Lapan A3 1 41603U 16040E 24151.79022187 .00004654 00000-0 18815-3 0 9999 2 41603 97.1427 166.2993 0012881 155.2637 204.9221 15.25125035440570 Pratham 1 41783U 16059A 24151.57639896 .00001399 00000-0 26835-3 0 9999 2 41783 97.8369 171.7401 0033998 77.2720 283.2281 14.64858815409969 CAS-2T 1 41847U 16066G 24151.81197783 .00001644 00000-0 25022-3 0 9999 2 41847 98.4609 223.2396 0353432 229.5828 127.4032 14.41186246396997 CAS-4B 1 42759U 17034B 24151.72342205 .00015719 00000-0 57697-3 0 9990 2 42759 43.0193 325.2197 0013211 237.2348 122.7232 15.27653872384735 CAS-4A 1 42761U 17034D 24151.72597096 .00016124 00000-0 58981-3 0 9991 2 42761 43.0237 323.5636 0012172 246.6206 113.3366 15.27761957384747 Aalto 1 1 42775U 17036L 24151.58824532 .00076668 00000-0 78075-3 0 9995 2 42775 97.1050 181.0349 0004088 224.5685 135.5247 15.64879749386359 URSA MAIOR 1 42776U 17036M 24151.59277843 .00244131 00000-0 10548-2 0 9996 2 42776 97.0981 185.1546 0006473 205.6516 154.4435 15.84281607386619 Max Valier Sat 1 42778U 17036P 24151.58880739 .00250551 00000-0 10650-2 0 9998 2 42778 97.0895 189.2436 0005106 201.8856 158.2197 15.84621765386794 D-SAT 1 42794U 17036AF 24151.86425746 .00005814 00000-0 40994-3 0 9995 2 42794 97.4884 134.3944 0109537 205.7235 153.8519 15.00566852378159 TechnoSat 1 42829U 17042E 24151.46405269 .00004349 00000-0 38692-3 0 9999 2 42829 97.3851 333.5295 0013918 129.2206 231.0254 14.96484952374524 AO-91 1 43017U 17073E 24151.63324650 .00012520 00000-0 77706-3 0 9995 2 43017 97.5798 27.7428 0211199 352.9163 6.9083 14.93112713353047 TianYi 2 1 43155U 18008A 24151.86244489 .00144184 00000-0 19259-2 0 9993 2 43155 97.2367 205.5458 0008451 148.9505 211.2252 15.57534736352206 Zhou Enlai 1 43156U 18008B 24151.83039428 .00252118 00000-0 21532-2 0 9990 2 43156 97.2388 207.2887 0006211 171.8913 188.2450 15.68705059352220 TianYi 6 1 43158U 18008D 24151.66382863 .00057806 00000-0 11936-2 0 9991 2 43158 97.2554 200.2306 0008838 151.1735 209.0005 15.45618831351768 S-Net D 1 43186U 18014G 24151.69424412 .00005508 00000-0 39836-3 0 9991 2 43186 97.5908 53.8428 0012061 69.5836 290.6684 15.04378739345878 S-Net B 1 43187U 18014H 24151.29733979 .00004412 00000-0 32003-3 0 9991 2 43187 97.5918 53.4015 0012951 66.6492 293.6095 15.04367783345812 S-Net A 1 43188U 18014J 24151.29632476 .00004546 00000-0 32956-3 0 9997 2 43188 97.5922 53.5115 0012787 67.1416 293.1159 15.04375153345815 S-Net C 1 43189U 18014K 24151.29950032 .00004329 00000-0 31389-3 0 9997 2 43189 97.5941 53.4588 0014550 60.4273 299.8401 15.04371046344366 Ten-Koh 1 43677U 18084G 24151.41627540 .00003246 00000-0 29504-3 0 9998 2 43677 98.0606 304.4302 0014950 77.6885 282.6008 14.95906972304065 PO-101 1 43678U 18084H 24151.87567545 .00002207 00000-0 20609-3 0 9990 2 43678 98.0701 309.3603 0010402 88.7078 271.5333 14.95230951304330 QO-100 1 43700U 18090A 24151.48385962 .00000148 00000-0 00000-0 0 9993 2 43700 0.0154 297.4954 0001991 170.5324 340.4726 1.00273915 20183 MinXSS-2 1 43758U 18099A 24151.12922809 .00010512 00000-0 67221-3 0 9990 2 43758 97.5537 213.7672 0016797 24.6371 335.5656 15.08676194300065 AO-95 1 43770U 18099N 24151.16241675 .00006977 00000-0 48768-3 0 9998 2 43770 97.5468 209.3947 0015164 68.4552 291.8289 15.05524606299859 RANGE-B 1 43772U 18099Q 24151.09789173 .00009728 00000-0 61059-3 0 9997 2 43772 97.5250 212.7447 0004381 345.7422 14.3682 15.09490510299999 RANGE-A 1 43773U 18099R 24151.38751386 .00004111 00000-0 31593-3 0 9996 2 43773 97.5000 205.2055 0014913 39.6544 320.5769 15.02180647299764 MOVE-II 1 43780U 18099Y 24151.13182668 .00016815 00000-0 89974-3 0 9998 2 43780 97.5217 214.2956 0006828 53.0365 307.1492 15.15100142300199 SNUSat 2 1 43782U 18099AA 24151.10025431 .00006391 00000-0 45705-3 0 9993 2 43782 97.5146 208.5832 0014686 9.9447 350.2068 15.04705760299856 SnugLite 1 43784U 18099AC 24151.66358742 .00007715 00000-0 53533-3 0 9999 2 43784 97.4953 208.4845 0004688 31.1292 329.0212 15.05844768300000 ITASat 1 1 43786U 18099AE 24151.09854328 .00006693 00000-0 48625-3 0 9999 2 43786 97.5117 208.8736 0018404 57.9068 302.3942 15.04043407299850 EAGLET 1 1 43790U 18099AJ 24151.12845889 .00004602 00000-0 34883-3 0 9999 2 43790 97.5270 209.3846 0014544 34.7310 325.4862 15.02653384299561 ESEO 1 43792U 18099AL 24151.72326910 .00002170 00000-0 18070-3 0 9994 2 43792 97.5201 206.9393 0014033 33.2751 326.9352 14.99587557299588 CSIM 1 43793U 18099AM 24151.18449443 .00013682 00000-0 73400-3 0 9990 2 43793 97.5297 216.0565 0012300 20.4536 339.7186 15.15009134300052 JO-97 1 43803U 18099AX 24151.10920127 .00008180 00000-0 54873-3 0 9997 2 43803 97.5210 210.1834 0009717 12.8461 347.3013 15.07058116299970 Suomi 100 1 43804U 18099AY 24151.15151195 .00006458 00000-0 44202-3 0 9995 2 43804 97.5282 210.0284 0015759 10.0464 350.1075 15.06331963299966 ISAT 1 43879U 18111D 24151.32268677 .00009695 00000-0 59749-3 0 9993 2 43879 97.6208 57.1140 0015243 65.4474 294.8342 15.10073491296727 UWE-4 1 43880U 18111E 24151.56300752 .00010675 00000-0 67293-3 0 9995 2 43880 97.6121 57.4158 0018595 71.5195 288.8053 15.09171213296772 Sparrow 1 43881U 18111F 24151.29967207 .00011181 00000-0 67962-3 0 9996 2 43881 97.6285 58.9585 0012358 100.5685 259.6937 15.10572530296789 AISat 1 1 44104U 19018AC 24151.85309641 .00279472 32017-4 76937-3 0 9994 2 44104 97.3610 261.9129 0008324 28.2589 331.9136 15.93879324290112 Prox-1 1 44339U 19036A 24151.62374986 .00010865 00000-0 18784-2 0 9990 2 44339 24.0002 338.3952 0008343 160.5495 199.5318 14.66493125262663 SONATE 1 44400U 19038Q 24151.52343926 .00018232 00000-0 56357-3 0 9995 2 44400 97.7124 144.8410 0017312 160.9592 199.2300 15.33428164271373 BeeSat 9 1 44412U 19038AC 24151.74455961 .01389516 12702-2 16599-2 0 9999 2 44412 97.6707 159.0173 0010099 183.3336 176.7880 16.08611435272075 JAISAT-1 1 44419U 19038F 24151.73573032 .00740846 24577-3 16702-2 0 9991 2 44419 97.6631 159.7691 0009857 158.6648 201.5041 15.97591214272436 Taurus 1 1 44530U 19059C 24151.84237444 .00009771 00000-0 22683-2 0 9996 2 44530 98.5738 271.5547 0012729 110.3684 249.8881 14.55135344249249 Duchifat 3 1 44854U 19089C 24151.41010179 .00012227 00000-0 62873-3 0 9991 2 44854 36.9563 156.9087 0007666 288.5049 71.4865 15.15861231245573 TO-108 1 44881U 19093C 24151.84394796 .00001634 00000-0 20379-3 0 9998 2 44881 97.8284 228.9604 0014863 25.0626 335.1306 14.83706136240476 FloripaSat 1 1 44885U 19093G 24151.75758145 .00006097 00000-0 63592-3 0 9996 2 44885 97.8400 234.4663 0012534 18.8966 341.2714 14.90061765240771 RS-44 1 44909U 19096E 24151.36525292 .00000046 00000-0 13020-3 0 9997 2 44909 82.5190 116.6175 0218687 92.8363 269.7788 12.79730114206698 BY70-2 1 45857U 20042B 24151.86037828 .00166157 00000-0 61639-2 0 9995 2 45857 97.9066 244.3125 0011107 252.0331 107.9696 15.26825356211909 UPMSat 2 1 46276U 20061E 24151.74365812 .00015901 00000-0 49452-3 0 9996 2 46276 97.2976 218.1999 0001973 145.9630 214.1739 15.33399690207503 AmicalSat 1 46287U 20061R 24151.13892079 .00029005 00000-0 82330-3 0 9993 2 46287 97.3496 218.4059 0000911 241.9144 118.2008 15.36164425206793 SALSAT 1 46495U 20068K 24151.48405672 .00007348 00000-0 42020-3 0 9996 2 46495 97.8155 110.3356 0014513 22.5220 337.6644 15.12896410201633 UVSQ-SAT 1 47438U 21006AB 24151.12216219 .00042908 00000-0 87223-3 0 9990 2 47438 97.3267 211.3844 0005532 261.9419 98.1203 15.46173207185948 YUSAT 1 1 47439U 21006AC 24151.13345309 .00126680 00000-0 12761-2 0 9999 2 47439 97.3217 215.6594 0007073 236.8273 123.2308 15.64967724186227 SOMP 2b 1 47445U 21006AJ 24151.15357079 .00036573 00000-0 81766-3 0 9998 2 47445 97.3238 209.8027 0005180 273.2457 86.8198 15.43399335185874 IDEASSat 1 47458U 21006AX 24151.68278359 .00030278 00000-0 73695-3 0 9991 2 47458 97.3346 210.9089 0005114 276.2431 83.8233 15.40883079185890 CubeSX-Sirius-HSE 1 47951U 21022V 24151.85546660 .00026400 00000-0 10558-2 0 9999 2 47951 97.4619 50.2704 0014144 189.6412 170.4556 15.24981486175938 CubeSX-HSE 1 47952U 21022W 24151.87574770 .00025601 00000-0 10205-2 0 9996 2 47952 97.4618 50.3789 0014139 188.7932 171.3060 15.25097022175949 KSU-Cubesat 1 47954U 21022Y 24151.70003768 .00020830 00000-0 76518-3 0 9993 2 47954 97.4628 51.4437 0013283 183.0621 177.0539 15.27865230175711 GRBAlpha 1 47959U 21022AD 24151.84119496 .00024731 00000-0 98316-3 0 9993 2 47959 97.4623 50.4914 0013965 188.7732 171.3264 15.25197421174766 Orbicraft-Zorkiy 1 47960U 21022AE 24151.85639150 .00026332 00000-0 99018-3 0 9999 2 47960 97.4665 51.7256 0013307 184.8764 175.2347 15.27045039175517 STECCO 1 47962U 21022AG 24151.75569014 .00102145 00000-0 14863-2 0 9992 2 47962 97.4614 60.5327 0010917 135.8060 224.4068 15.55333759175415 MO-110 1 47964U 21022AJ 24151.70198406 .00139654 00000-0 16235-2 0 9992 2 47964 97.4631 62.1688 0012213 135.4677 224.7564 15.61182113175502 TUBIN 1 48900U 21059X 24151.85559560 .00020740 00000-0 72327-3 0 9991 2 48900 97.6439 295.9951 0007890 143.7504 216.4271 15.29629394162270 LEDSAT 1 49069U 21073D 24151.72724121 .00015060 00000-0 61661-3 0 9995 2 49069 97.4378 222.9821 0018579 348.6033 11.4781 15.24244153153799 CUTE 1 49263U 21088D 24151.87729509 .00025153 00000-0 11962-2 0 9990 2 49263 97.4976 217.9902 0016016 139.1819 221.0619 15.19059264147010 TeikyoSat 4 1 49396U 21102B 24151.61814910 .00003435 00000-0 25070-3 0 9992 2 49396 97.4597 197.2027 0012870 340.7121 19.3617 15.04270774140119 Z-Sat 1 49399U 21102E 24151.82530637 .00006225 00000-0 40389-3 0 9999 2 49399 97.4318 198.9122 0019231 320.4615 39.5210 15.08272490140370 KOSEN 1 1 49402U 21102H 24151.56988757 .00006230 00000-0 37282-3 0 9999 2 49402 97.4243 200.0419 0017417 304.3380 55.6202 15.11254145140483 HO-113 1 50466U 21131B 24151.75042027 .00000969 00000-0 32398-3 0 9991 2 50466 98.5278 236.9011 0004578 163.9392 196.1942 14.39629900127499 Tevel-3 1 50988U 22002E 24151.80596149 .00182389 00000-0 19921-2 0 9996 2 50988 97.3774 226.8562 0001626 175.5357 184.5916 15.62743756132330 Tevel-8 1 50989U 22002F 24151.84592284 .00186383 00000-0 20486-2 0 9993 2 50989 97.3796 226.9899 0001796 172.5450 187.5835 15.62567680132331 Tevel-5 1 50998U 22002Q 24151.79845593 .00235016 00000-0 20304-2 0 9998 2 50998 97.3758 228.1630 0001898 221.5288 138.5829 15.68488019132426 Tevel-6 1 50999U 22002R 24151.80618870 .00233848 00000-0 20417-2 0 9993 2 50999 97.3751 228.1323 0001883 219.5986 140.5137 15.68232106132424 Tevel-1 1 51013U 22002AF 24151.83522749 .00181860 00000-0 20034-2 0 9994 2 51013 97.3766 226.7448 0001436 180.9716 179.1539 15.62524383132335 IRIS-A 1 51044U 22002BN 24151.14886025 .00017180 00000-0 57763-3 0 9995 2 51044 97.3845 217.7284 0007435 100.8194 259.3885 15.30855692131666 Tevel-7 1 51062U 22002CG 24151.83344834 .00184575 00000-0 20141-2 0 9990 2 51062 97.3784 226.9526 0001432 184.2931 175.8315 15.62760732132335 Tevel-4 1 51063U 22002CH 24151.80999499 .00180760 00000-0 20154-2 0 9997 2 51063 97.3787 226.8235 0001285 172.3589 187.7689 15.62216254132328 Tevel-2 1 51069U 22002CP 24151.80358206 .00182088 00000-0 19855-2 0 9999 2 51069 97.3769 226.8218 0001564 179.5246 180.6014 15.62787747132339 OreSat0 1 52017U 22026K 24151.54657100 .00057391 00000-0 97882-3 0 9990 2 52017 97.4961 165.0584 0009312 271.6819 88.3366 15.51118012122971 Planetum 1 1 52738U 22057G 24151.33994257 .00035188 00000-0 88299-3 0 9990 2 52738 97.5642 276.8631 0006184 209.1462 150.9439 15.39919298111826 Foresail-1 1 52766U 22057AL 24151.29013261 .00017324 00000-0 57492-3 0 9996 2 52766 97.5802 276.3893 0009948 189.9768 170.1277 15.31259566111714 SNUGLITE 2 1 52899U 22065F 24151.86263436 .00002073 00000-0 43394-3 0 9997 2 52899 98.1177 293.3462 0007360 198.6461 161.4471 14.60775144101733 IO-117 1 53106U 22080B 24150.13546523 -.00000003 00000-0 00000-0 0 9992 2 53106 70.1363 199.1393 0007665 111.3674 248.7804 6.42557538 44049 SelfieSat 1 53951U 22057BC 24151.31106299 .00072413 00000-0 11753-2 0 9999 2 53951 97.5665 280.2836 0007536 212.1449 147.9345 15.52463650112011 FO-118 1 54684U 22167C 24151.73462387 .00026774 00000-0 94447-3 0 9995 2 54684 97.6036 296.1643 0010878 203.6611 156.4130 15.29173693 81638 SSS-2B 1 56184U 23054G 24151.74356354 .00033625 00000-0 84832-3 0 9995 2 56184 97.3709 49.5991 0005347 214.0846 146.0057 15.39767599 63454 CIRBE 1 56188U 23054L 24151.68694593 .00058847 00000-0 10365-2 0 9994 2 56188 97.3632 51.1778 0004699 187.4944 172.6238 15.50235370 63575 INSPIRE-Sat 7 1 56211U 23054AK 24151.69735357 .00062498 00000-0 10318-2 0 9991 2 56211 97.3652 52.3975 0008550 172.1373 188.0015 15.52018354 63648 RoseyCubesat 1 1 56212U 23054AL 24151.68136166 .00079164 00000-0 11345-2 0 9993 2 56212 97.3671 53.0582 0009133 168.8983 191.2474 15.55854896 63680 SO-120 1 56992U 23084BU 24151.30619305 .00024498 00000-0 91965-3 0 9998 2 56992 97.5294 270.4886 0012822 92.2540 268.0167 15.27122255 53450 MRC-100 1 56993U 23084BV 24151.30037212 .00028975 00000-0 10257-2 0 9998 2 56993 97.5287 270.8253 0011993 93.9685 266.2926 15.29029028 53483 UmKA 1 (RS40S) 1 57172U 23091G 24151.87442103 .00008066 00000-0 53573-3 0 9995 2 57172 97.6132 204.0967 0017273 175.3075 184.8318 15.07353451 50886 CubeBel-2 (EU11S) 1 57175U 23091K 24151.83184590 .00011418 00000-0 74470-3 0 9991 2 57175 97.6123 203.9877 0015440 187.9207 172.1780 15.07947485 50875 VERONIKA 1 58261U 23174F 24151.82466263 .00023788 00000-0 10878-2 0 9993 2 58261 97.4603 226.7772 0010930 303.5811 56.4380 15.20487310 31078 KAFASAT 1 58317U 23174BP 24151.81031888 .00029413 00000-0 12283-2 0 9998 2 58317 97.4551 227.2628 0009982 276.6820 83.3281 15.23548742 31117 ENSO 1 58470U 23185J 24151.85516700 .00021182 00000-0 90865-3 0 9993 2 58470 97.4271 218.7647 0011620 344.9933 15.0957 15.22690343 27502 EIRSAT-1 1 58472U 23185L 24151.83441660 .00021177 00000-0 89515-3 0 9999 2 58472 97.4262 218.7743 0011178 345.7875 14.3046 15.23194627 27509 SO-121 1 58567U 23174CY 24151.18953038 .00037177 00000-0 13559-2 0 9998 2 58567 97.4539 226.8862 0011359 283.4979 76.4994 15.28002568 31038 SONATE-2 1 59112U 24043Q 24151.31041710 .00008885 00000-0 43636-3 0 9995 2 59112 97.4762 275.3529 0014799 1.2346 358.8922 15.18203600 13090 KASHIWA 1 59508U 98067WH 24151.87933024 .00166025 00000-0 17854-2 0 9993 2 59508 51.6339 39.0468 0006391 220.1008 139.9515 15.62654118 7782 /EX